When you browse on this site, cookies collect data to enhance your experience and personalize the content and advertising you see.
Visit our Privacy Policy to learn more. By continuing to use the site, you agree to this use of cookies and data.
  • en France
  • Liste des pays
  • À 7 jours
  • Température de l'eau
  • Carte météo
  • Widgets météo
  • user-avatar
    Se connecter

    Météo par heure à Hutor Sredniy

    Ce jour, 19 Février, Mercredi

    Heure Température Précipitation Vent Pression Humidité
    00:00 0°C° 0 mm 4 m/s 744 mmHg 98%
    01:00 0°C° 0 mm 3 m/s 744 mmHg 98%
    02:00 +1°C° 0 mm 3 m/s 744 mmHg 98%
    03:00 0°C° 0 mm 4 m/s 744 mmHg 98%
    04:00 0°C° 0 mm 4 m/s 745 mmHg 97%
    05:00 0°C° 0 mm 5 m/s 745 mmHg 97%
    06:00 0°C° 0 mm 5 m/s 745 mmHg 96%
    07:00 0°C° 0 mm 5 m/s 745 mmHg 95%
    08:00 -1°C° 0 mm 4 m/s 745 mmHg 93%
    09:00 -1°C° 0 mm 4 m/s 745 mmHg 95%
    10:00 -1°C° 0 mm 4 m/s 745 mmHg 96%
    11:00 -1°C° 0 mm 4 m/s 746 mmHg 97%
    12:00 0°C° 0 mm 4 m/s 746 mmHg 97%
    13:00 0°C° 0 mm 4 m/s 746 mmHg 97%
    14:00 0°C° 0 mm 4 m/s 746 mmHg 97%
    15:00 +1°C° 0 mm 3 m/s 746 mmHg 95%
    16:00 +1°C° 0 mm 3 m/s 746 mmHg 93%
    17:00 +1°C° 0 mm 3 m/s 746 mmHg 91%
    18:00 0°C° 0 mm 3 m/s 746 mmHg 90%
    19:00 0°C° 0 mm 3 m/s 747 mmHg 90%
    20:00 0°C° 0 mm 3 m/s 747 mmHg 89%
    21:00 0°C° 0 mm 3 m/s 747 mmHg 89%
    22:00 -1°C° 0 mm 3 m/s 747 mmHg 88%
    23:00 -1°C° 0 mm 2 m/s 747 mmHg 88%

    Demain, 20 Février, Jeudi

    Heure Température Précipitation Vent Pression Humidité
    00:00 -1°C° 0 mm 2 m/s 748 mmHg 88%
    01:00 -1°C° 0 mm 2 m/s 748 mmHg 89%
    02:00 -1°C° 0 mm 2 m/s 748 mmHg 89%
    03:00 -1°C° 0 mm 3 m/s 748 mmHg 90%
    04:00 -1°C° 0 mm 3 m/s 748 mmHg 92%
    05:00 -1°C° 0 mm 3 m/s 748 mmHg 93%
    06:00 -1°C° 0 mm 3 m/s 749 mmHg 93%
    07:00 -1°C° 0 mm 3 m/s 749 mmHg 92%
    08:00 -1°C° 0 mm 3 m/s 749 mmHg 92%
    09:00 0°C° 0 mm 3 m/s 750 mmHg 92%
    10:00 +1°C° 0 mm 3 m/s 750 mmHg 92%
    11:00 +1°C° 0 mm 3 m/s 750 mmHg 92%
    12:00 +1°C° 0 mm 3 m/s 750 mmHg 92%
    13:00 +3°C° 0 mm 2 m/s 750 mmHg 92%
    14:00 +3°C° 0 mm 2 m/s 750 mmHg 92%
    15:00 +2°C° 0 mm 2 m/s 750 mmHg 92%
    16:00 +1°C° 0 mm 2 m/s 750 mmHg 93%
    17:00 +1°C° 0 mm 2 m/s 751 mmHg 93%
    18:00 -1°C° 0 mm 2 m/s 751 mmHg 93%
    19:00 -1°C° 0 mm 2 m/s 751 mmHg 93%
    20:00 -1°C° 0 mm 2 m/s 752 mmHg 93%
    21:00 -1°C° 0 mm 2 m/s 752 mmHg 93%
    22:00 -1°C° 0 mm 2 m/s 752 mmHg 93%
    23:00 -1°C° 0 mm 2 m/s 752 mmHg 93%

    Après-demain, 21 Février, Vendredi

    Heure Température Précipitation Vent Pression Humidité
    00:00 -1°C° 0 mm 2 m/s 752 mmHg 93%
    01:00 -1°C° 0 mm 2 m/s 752 mmHg 93%
    02:00 -2°C° 0 mm 2 m/s 752 mmHg 93%
    03:00 -2°C° 0 mm 2 m/s 752 mmHg 93%
    04:00 -2°C° 0 mm 2 m/s 752 mmHg 93%
    05:00 -2°C° 0 mm 2 m/s 752 mmHg 93%
    06:00 -2°C° 0 mm 2 m/s 752 mmHg 93%
    07:00 -2°C° 0 mm 2 m/s 752 mmHg 93%
    08:00 -2°C° 0 mm 2 m/s 753 mmHg 93%
    15:00 +2°C° 0 mm 2 m/s 752 mmHg 84%
    16:00 +1°C° 0 mm 2 m/s 752 mmHg 86%
    17:00 -1°C° 0 mm 2 m/s 752 mmHg 89%
    18:00 -1°C° 0 mm 2 m/s 752 mmHg 89%
    19:00 -1°C° 0 mm 2 m/s 752 mmHg 90%
    20:00 -1°C° 0 mm 2 m/s 753 mmHg 91%
    21:00 -2°C° 0 mm 2 m/s 753 mmHg 91%
    22:00 -2°C° 0 mm 2 m/s 753 mmHg 91%
    23:00 -2°C° 0 mm 2 m/s 753 mmHg 91%

    22 Février, Samedi

    Heure Température Précipitation Vent Pression Humidité
    00:00 -2°C° 0 mm 2 m/s 753 mmHg 91%
    01:00 -2°C° 0 mm 2 m/s 753 mmHg 92%
    02:00 -2°C° 0 mm 2 m/s 753 mmHg 92%
    03:00 -2°C° 0 mm 2 m/s 753 mmHg 92%
    04:00 -3°C° 0 mm 2 m/s 753 mmHg 92%
    05:00 -3°C° 0 mm 2 m/s 753 mmHg 92%
    06:00 -3°C° 0 mm 2 m/s 754 mmHg 91%
    07:00 -3°C° 0 mm 2 m/s 754 mmHg 90%
    08:00 -3°C° 0 mm 2 m/s 754 mmHg 89%
    09:00 -2°C° 0 mm 2 m/s 754 mmHg 83%
    10:00 -1°C° 0 mm 3 m/s 754 mmHg 78%
    11:00 -1°C° 0 mm 3 m/s 754 mmHg 72%
    12:00 0°C° 0 mm 3 m/s 754 mmHg 70%
    13:00 -1°C° 0 mm 4 m/s 753 mmHg 69%
    14:00 -1°C° 0 mm 4 m/s 753 mmHg 68%
    15:00 -1°C° 0 mm 4 m/s 753 mmHg 71%
    16:00 -1°C° 0 mm 3 m/s 752 mmHg 74%
    17:00 -1°C° 0 mm 3 m/s 752 mmHg 77%
    18:00 -3°C° 0 mm 4 m/s 752 mmHg 77%
    19:00 -3°C° 0 mm 4 m/s 751 mmHg 78%
    20:00 -4°C° 0 mm 5 m/s 751 mmHg 79%
    21:00 -4°C° 0 mm 5 m/s 750 mmHg 79%
    22:00 -4°C° 0 mm 6 m/s 749 mmHg 79%
    23:00 -4°C° 0 mm 6 m/s 748 mmHg 80%

    23 Février, Dimanche

    Heure Température Précipitation Vent Pression Humidité
    00:00 -4°C° 0 mm 7 m/s 747 mmHg 81%
    01:00 -3°C° 0 mm 7 m/s 746 mmHg 82%
    02:00 -4°C° 0 mm 8 m/s 745 mmHg 84%
    03:00 -4°C° 0.1 mm 8 m/s 744 mmHg 86%
    04:00 -4°C° 0.1 mm 9 m/s 743 mmHg 88%
    05:00 -4°C° 0.1 mm 10 m/s 742 mmHg 90%
    06:00 -4°C° 0.7 mm 10 m/s 741 mmHg 91%
    07:00 -4°C° 0.7 mm 10 m/s 739 mmHg 92%
    08:00 -3°C° 0.7 mm 10 m/s 738 mmHg 93%
    09:00 -3°C° 0.7 mm 9 m/s 738 mmHg 94%
    10:00 -3°C° 0.7 mm 9 m/s 737 mmHg 96%
    11:00 -2°C° 0.7 mm 8 m/s 737 mmHg 97%
    12:00 -1°C° 0.2 mm 7 m/s 736 mmHg 91%
    13:00 -1°C° 0.2 mm 7 m/s 736 mmHg 86%
    14:00 0°C° 0.2 mm 7 m/s 736 mmHg 80%
    15:00 -1°C° 0.2 mm 6 m/s 736 mmHg 79%
    16:00 0°C° 0.2 mm 5 m/s 736 mmHg 77%
    17:00 -1°C° 0.2 mm 5 m/s 736 mmHg 76%
    18:00 -1°C° 0 mm 4 m/s 736 mmHg 78%
    19:00 -1°C° 0 mm 4 m/s 736 mmHg 79%
    20:00 -2°C° 0 mm 4 m/s 736 mmHg 81%
    21:00 -2°C° 0 mm 4 m/s 736 mmHg 83%
    22:00 -2°C° 0 mm 5 m/s 736 mmHg 84%
    23:00 -2°C° 0 mm 5 m/s 736 mmHg 86%

    24 Février, Lundi

    Heure Température Précipitation Vent Pression Humidité
    00:00 -2°C° 0 mm 5 m/s 736 mmHg 86%
    01:00 -2°C° 0 mm 5 m/s 736 mmHg 87%
    02:00 -3°C° 0 mm 4 m/s 736 mmHg 88%
    03:00 -3°C° 0 mm 4 m/s 735 mmHg 88%
    04:00 -3°C° 0 mm 4 m/s 735 mmHg 89%
    05:00 -4°C° 0 mm 3 m/s 735 mmHg 89%
    06:00 -2°C° 0 mm 3 m/s 735 mmHg 89%
    07:00 -2°C° 0 mm 3 m/s 734 mmHg 89%
    08:00 -2°C° 0 mm 2 m/s 734 mmHg 89%
    09:00 -2°C° 0 mm 2 m/s 734 mmHg 88%
    10:00 -1°C° 0 mm 2 m/s 733 mmHg 86%
    11:00 -1°C° 0 mm 2 m/s 732 mmHg 84%
    12:00 +1°C° 0 mm 2 m/s 732 mmHg 84%
    13:00 +1°C° 0 mm 2 m/s 732 mmHg 83%
    14:00 0°C° 0 mm 3 m/s 731 mmHg 83%
    15:00 0°C° 0 mm 3 m/s 731 mmHg 85%
    16:00 -1°C° 0 mm 3 m/s 732 mmHg 86%
    17:00 -1°C° 0 mm 3 m/s 732 mmHg 88%
    18:00 -1°C° 0 mm 3 m/s 733 mmHg 88%
    19:00 -2°C° 0 mm 3 m/s 733 mmHg 88%
    20:00 -3°C° 0 mm 4 m/s 734 mmHg 88%
    21:00 -3°C° 0 mm 4 m/s 734 mmHg 87%
    22:00 -3°C° 0 mm 4 m/s 735 mmHg 86%
    23:00 -4°C° 0 mm 5 m/s 735 mmHg 85%
    Voir plus